{"data":{"norad_id":64249,"intl_designator":"2025-119S","name":"STARLINK-34256","alt_names":[],"object_type":"PAYLOAD","status":"ACTIVE","operator":null,"country":"US","launch_date":"2025-06-03","launch_site_code":"AFETR","launch_vehicle":null,"mission":null,"orbit_class":"UNKNOWN","rcs_meters":null,"size_class":null,"mass_kg":null,"dimensions":null,"purposes":["comms"],"wikipedia_slug":null,"has_3d_model":false,"image_url":null,"decayed_at":null,"tle_current":{"epoch":"2026-09-19T09:04:15.879648Z","epoch_age_seconds":234530,"freshness":"STALE","line1":"1 64249U 25119S   26262.37796157  .00021821  00000+0  79890-3 0  9995","line2":"2 64249  43.0000 293.0092 0000616 231.0385 129.0412 15.27630863 73790","mean_motion":15.27630863,"eccentricity":6.16e-5,"inclination_deg":43,"raan_deg":293.0092,"arg_perigee_deg":231.0385,"mean_anomaly_deg":129.0412,"bstar":0.0007989,"rev_number":7379,"period_min":94.263610069522,"perigee_km":482.47415846363,"apogee_km":483.31943782756,"semimajor_km":6861.0337981456,"source":"CELESTRAK","updated_at":"2026-09-21T09:00:35.279624Z"}}}